Lapse_Rate
7.3 7.5 7.5 7.3 6.9 7.0 6.8 6.7 6.7 6.8 6.8 6.8 6.9 6.8 6.8 6.8 7.0 7.0 6.9 6.9 6.9 6.8 6.8 6.7 6.7 6.7 6.6 6.6 6.5 6.4 6.3 6.0
7.3 7.3 7.4 7.3 7.1 6.8 7.0 6.7 6.7 6.7 6.7 6.9 6.9 6.9 6.9 6.9 6.9 6.9 6.9 6.9 6.8 6.8 6.8 6.6 6.5 6.6 6.6 6.7 6.6 6.5 6.3 5.5
7.4 7.4 7.3 7.3 7.1 7.0 6.8 6.8 6.7 6.7 6.8 6.9 6.9 6.8 6.9 6.9 6.9 6.8 6.8 6.9 6.9 6.8 6.7 6.7 6.6 6.6 6.5 6.6 6.6 6.5 6.4 5.9
7.4 7.4 7.3 7.2 7.2 7.0 6.9 6.7 6.7 6.9 6.9 6.9 7.0 6.8 6.7 6.8 6.9 6.9 6.9 6.9 6.8 6.9 6.8 6.7 6.7 6.7 6.6 6.5 6.5 6.6 6.9 6.4
7.3 7.3 7.3 7.1 7.4 7.1 7.1 6.8 6.7 6.7 6.8 6.8 6.8 6.8 6.7 6.7 6.9 6.8 7.0 7.0 7.0 6.9 6.8 6.8 6.9 6.7 6.6 6.7 6.6 6.5 6.4 6.6
7.3 7.4 7.4 7.2 7.2 7.4 7.0 7.1 6.8 6.7 6.7 6.7 6.7 6.7 6.8 6.9 6.8 6.9 6.9 6.9 7.0 7.0 7.0 6.9 6.8 6.8 6.8 6.8 6.5 6.4 6.1 6.4
7.6 7.6 7.6 7.5 7.2 7.3 7.2 7.0 6.9 6.6 6.5 6.6 6.6 6.7 6.7 6.6 6.9 6.8 6.8 6.8 6.8 6.8 6.8 6.6 6.6 6.5 6.4 6.4 6.2 6.1 6.1 6.1
7.5 7.6 7.8 7.6 7.2 7.2 7.0 7.1 7.0 6.8 6.6 6.4 6.3 6.5 6.6 6.6 6.5 7.0 6.9 6.8 6.5 6.6 6.4 6.7 6.5 6.5 6.4 6.3 6.3 6.4 6.3 6.3
7.2 7.6 7.5 7.6 7.5 7.0 7.2 6.8 6.9 7.0 6.7 6.4 6.2 6.2 6.4 6.6 6.3 6.4 6.8 6.9 6.9 6.7 6.6 6.6 6.5 6.1 6.2 6.3 6.1 6.2 6.5 6.3
7.1 7.4 7.4 7.4 7.6 7.3 7.2 6.9 6.8 6.9 6.7 6.4 6.3 5.8 6.0 6.3 6.3 6.2 6.3 6.6 6.4 6.3 6.3 6.2 6.3 6.2 6.0 6.1 6.5 6.3 6.3 6.5
6.9 7.6 7.4 7.4 7.3 7.3 7.1 7.0 6.8 6.6 6.8 6.4 6.3 5.9 5.7 5.9 6.1 6.2 6.2 6.2 6.4 6.0 5.9 5.8 5.9 5.8 5.8 6.0 6.0 6.4 6.4 6.6
6.9 7.5 7.7 7.7 7.2 7.0 7.0 6.9 6.9 6.7 6.7 6.7 6.4 6.0 5.7 5.8 5.9 5.9 6.0 5.9 6.2 6.2 5.8 5.9 5.9 5.9 5.9 5.9 6.3 6.6 6.3 6.6
7.3 6.9 7.5 7.1 7.4 7.2 6.8 6.9 6.8 6.6 6.7 6.8 6.4 6.4 5.9 5.6 5.9 5.9 6.0 5.8 6.0 5.9 5.8 5.8 5.9 5.9 6.0 6.1 6.2 6.5 6.6 6.8
7.6 7.5 7.0 7.0 6.9 7.0 6.7 6.6 6.6 6.6 6.5 6.5 6.4 6.5 6.4 5.8 5.9 5.9 6.1 6.1 5.8 5.7 5.9 5.8 5.8 5.9 5.9 5.9 6.1 6.7 6.8 6.5
7.9 7.8 7.7 7.1 7.0 6.8 6.3 6.0 6.2 6.3 6.5 6.4 6.5 6.5 6.5 6.0 5.9 5.9 6.0 6.1 6.1 6.2 6.0 5.9 6.1 6.2 6.1 6.1 6.0 6.5 6.8 6.9
7.9 7.9 7.7 7.2 6.7 6.6 6.5 6.1 5.7 6.1 6.4 6.2 6.4 6.6 6.4 6.1 6.1 6.0 6.0 6.1 6.2 6.0 5.9 5.9 6.1 6.3 6.1 6.3 6.2 6.1 6.3 6.7
7.5 7.8 7.6 7.0 6.6 6.4 6.5 6.1 5.8 5.9 6.1 6.3 6.4 6.4 6.4 6.3 6.3 6.3 6.2 6.3 6.2 6.1 6.2 6.1 6.1 6.3 6.2 6.2 6.3 6.1 6.2 6.3
7.3 7.5 7.2 6.8 6.7 6.4 6.4 6.3 5.5 5.6 6.1 6.3 6.2 6.3 6.5 6.5 6.4 6.3 6.1 6.1 6.1 6.2 6.4 6.3 6.2 6.2 6.2 6.2 6.2 6.2 6.4 6.5
7.3 7.0 6.9 6.5 6.5 6.4 6.4 6.4 5.7 5.8 6.2 6.3 6.5 6.7 6.7 6.7 6.5 6.4 6.3 6.2 6.3 6.2 6.3 6.3 6.3 6.3 6.3 6.4 6.6 6.6 6.4 6.4
6.7 6.7 6.6 6.4 6.3 6.4 6.2 6.6 6.4 6.4 6.6 6.7 6.9 6.9 6.7 6.7 6.7 6.5 6.3 6.2 6.1 6.1 6.1 6.3 6.3 6.4 6.4 6.5 6.5 6.6 6.5 6.6
Wind_Speed
16 18 19 20 19 20 21 21 20 20 18 17 17 16 15 14 14 14 13 13 14 15 14 12 9 6 2 7 14 17 13 13
14 16 17 16 15 20 21 20 19 18 18 18 17 16 16 15 14 14 14 13 13 13 13 10 7 4 3 4 12 19 16 13
12 11 15 16 16 16 18 18 18 17 16 16 17 13 14 14 14 16 13 13 12 11 10 8 7 6 6 6 8 14 18 2
13 11 11 16 16 17 15 15 15 15 16 16 14 14 14 15 15 17 14 13 12 11 9 8 8 11 13 12 12 16 16 6
16 14 13 13 10 15 13 14 14 15 18 18 16 14 16 14 13 12 11 12 10 10 10 10 13 14 9 14 15 16 7 10
18 18 15 13 14 12 15 11 14 13 17 19 15 10 13 12 12 14 13 13 12 14 11 13 14 16 12 2 4 10 10 10
20 19 16 15 12 10 12 9 14 16 17 19 18 12 7 11 12 15 15 15 13 12 12 13 12 13 3 2 2 6 6 4
21 20 18 16 14 9 11 14 18 18 18 19 22 15 8 8 6 11 14 16 16 13 10 7 6 6 6 5 4 8 6 6
20 19 18 16 16 11 9 11 14 12 16 21 24 20 11 11 6 5 10 16 18 15 9 9 5 5 5 8 7 8 6 6
19 16 17 17 14 12 7 8 11 12 16 19 24 24 17 11 7 6 11 11 8 1 2 3 4 4 3 4 4 6 9 6
18 17 17 18 14 11 11 8 8 9 16 13 19 23 21 8 5 6 14 6 5 5 4 3 4 4 5 5 4 4 1 2
15 14 17 17 13 10 10 8 8 11 7 12 15 19 19 12 7 5 11 6 5 5 5 5 4 5 4 2 1 2 4 1
3 11 12 12 12 12 11 11 9 9 10 12 13 18 19 13 6 5 4 5 5 7 5 6 4 2 3 3 3 4 3 2
4 2 8 11 11 11 9 10 9 9 6 8 11 16 18 12 7 7 6 5 6 6 6 3 3 3 3 2 2 3 2 3
5 5 7 9 12 9 8 7 8 8 9 9 9 14 16 13 10 6 6 6 7 5 6 7 4 2 5 4 2 5 1 2
2 3 6 7 12 12 13 10 10 8 7 7 8 11 11 11 9 7 5 4 5 5 5 5 4 5 1 2 1 2 3 2
1 6 7 7 8 8 9 8 4 3 4 5 5 7 8 9 8 8 6 4 5 6 5 6 5 4 3 2 2 1 1 2
4 5 7 8 7 8 9 9 7 5 5 4 4 3 4 6 6 6 7 5 5 4 4 7 8 6 6 5 4 3 3 3
2 5 2 3 8 8 9 8 9 13 10 7 6 5 4 6 6 6 4 5 4 4 3 2 3 4 5 4 4 4 3 3
4 1 2 2 5 5 5 6 4 6 6 6 5 5 5 6 6 6 5 4 4 4 3 3 2 0 2 3 3 3 3 3
Wind_Direction
147 153 156 157 161 164 163 162 162 160 159 157 156 157 156 155 153 153 152 150 152 150 152 153 159 167 228 304 311 318 318 299
148 156 158 162 165 168 167 167 166 165 164 164 165 161 162 164 161 162 162 162 159 159 161 164 166 185 221 289 305 308 299 275
148 162 168 168 164 169 165 166 168 167 168 169 164 170 171 169 182 171 171 165 165 168 169 173 185 207 226 246 275 287 291 101
160 172 175 171 175 161 171 172 170 176 177 171 181 184 182 178 184 172 173 175 174 173 181 188 207 221 215 221 244 253 272 85
167 173 176 180 191 159 177 178 181 187 184 175 197 193 185 187 142 163 169 181 181 185 188 210 215 234 230 197 219 248 273 92
170 170 180 187 200 166 177 180 186 186 191 182 194 205 176 188 161 168 178 183 205 186 198 211 234 242 245 261 25 327 330 102
173 169 181 184 200 177 178 189 186 188 190 191 193 207 175 184 175 173 182 181 210 188 206 202 217 233 229 303 337 286 336 92
169 171 176 184 201 195 181 187 182 187 190 195 194 212 186 188 203 177 183 189 198 215 200 190 210 176 212 184 221 269 245 262
167 170 172 185 194 214 189 182 185 192 191 193 192 209 205 177 188 200 185 190 188 201 203 201 166 189 210 184 192 249 267 264
167 169 171 180 185 202 213 197 196 187 199 192 188 197 217 186 181 202 194 172 162 157 270 182 181 188 190 197 180 213 232 223
169 171 176 175 183 193 209 196 188 210 193 203 184 192 201 185 203 190 187 167 154 168 229 208 186 203 205 193 208 185 138 173
164 174 177 174 179 187 197 210 197 198 199 200 180 187 195 201 198 229 182 175 154 160 194 214 193 194 200 71 71 92 38 56
50 160 180 174 178 185 192 205 200 198 210 190 188 183 188 194 195 210 200 149 166 165 193 234 223 180 79 48 3 0 331 274
156 230 158 187 188 188 194 196 202 204 196 189 197 179 180 187 191 192 180 171 193 179 179 200 213 178 131 92 265 278 252 260
180 218 197 187 185 186 191 191 202 187 197 195 195 167 171 184 182 182 182 180 194 176 174 202 184 180 155 148 144 228 174 148
104 256 231 223 190 186 193 204 200 197 191 190 156 154 160 171 177 186 166 162 190 184 175 190 167 175 154 177 95 129 205 280
325 232 238 237 192 194 196 196 151 85 81 98 116 137 153 167 169 169 175 177 190 187 180 184 187 167 173 145 125 144 142 205
263 233 209 209 170 154 139 160 161 188 156 163 181 139 130 148 166 167 176 160 169 192 193 193 190 191 190 173 164 170 184 183
257 281 155 83 112 136 154 170 196 212 174 181 161 144 154 148 137 143 144 142 167 176 167 194 182 188 180 196 206 201 156 175
182 201 101 101 119 135 163 127 133 145 147 146 156 159 155 146 149 142 146 158 171 186 193 198 157 246 236 206 192 214 183 179